Location: Ch�risy
(50.2331°N, 2.9131°E)
Time: 02:14:16
(UTC+00:00)

Cosmos 1908 - Pass Details

Date: 17 January 2021
Orbit: 512 x 528 km, 82.5° (Epoch: 28 February)

Event Time Altitude Azimuth Distance (km) Brightness Sun altitude
Rises 16:44:30 0° 352° (N) 2,655 6.6 -4.6°
Reaches altitude 10° 16:46:40 10° 356° (N) 1,764 5.7 -4.9°
Maximum altitude 16:50:30 61° 77° (ENE) 600 3.2 -5.5°
Drops below altitude 10° 16:54:20 10° 159° (SSE) 1,759 6.0 -6.0°
Sets 16:56:29 0° 163° (SSE) 2,646 6.9 -6.3°
